EW0079 Weather Reports


Display with metric or nautical units.
time (UTC)temp
F
wind
direction
speed
MPH
gust
MPH
rain 1hr
in
rain 24hr
in
rain mn
in
humidity
%
barometer
mb
20260510173014 52 243 8.0 17.0 0.02 0.10 0.13 1 1016.7
20260510170013 53 232 10.0 19.0 0.00 0.09 0.07 4 1016.7
20260510164513 54 232 11.0 21.0 0.00 0.09 0.07 11 1016.7
20260510163013 54 239 10.0 20.0 0.00 0.09 0.07 15 1016.8
20260510161513 54 241 13.0 22.0 0.00 0.09 0.07 5 1016.7
20260510160013 55 237 12.0 21.0 0.00 0.09 0.07 2 1016.5
20260510154513 53 237 12.0 19.0 0.04 0.09 0.07 1 1016.6
20260510153013 51 238 15.0 22.0 0.06 0.09 0.07 1 1016.6
20260510151513 51 246 16.0 31.0 0.07 0.09 0.07 1 1016.9
20260510150013 51 245 12.0 24.0 0.06 0.08 0.06 1 1017.3
20260510144513 52 235 12.0 20.0 0.03 0.05 0.03 1 1016.9
20260510143013 52 249 14.0 30.0 0.01 0.02 0.01 1 1016.9
20260510140013 56 236 11.0 22.0 0.00 0.02 0.00 38 1016.8
20260510134513 56 245 12.0 20.0 0.00 0.02 0.00 35 1017.0
20260510133013 56 246 12.0 22.0 0.00 0.02 0.00 50 1017.0
20260510131513 56 247 13.0 22.0 0.00 0.02 0.00 48 1016.8
20260510123012 58 200 9.0 18.0 0.00 0.02 0.00 58 1017.1
20260510121512 57 220 9.0 19.0 0.00 0.02 0.00 53 1017.4
20260510113012 55 219 8.0 18.0 0.00 0.02 0.00 41 1017.9
20260510110012 53 223 10.0 18.0 0.00 0.02 0.00 13 1018.1
20260510103013 53 204 7.0 14.0 0.00 0.02 0.00 30 1018.1
20260510100012 53 196 8.0 19.0 0.00 0.02 0.00 16 1018.0
20260510093013 56 217 10.0 16.0 0.00 0.02 0.00 49 1017.9
20260510091513 55 218 8.0 21.0 0.00 0.02 0.00 53 1017.8
20260510090013 55 212 8.0 16.0 0.00 0.02 0.00 44 1017.7
20260510083013 54 231 9.0 18.0 0.00 0.02 0.00 50 1017.7
20260510081512 54 219 7.0 14.0 0.00 0.02 0.00 45 1017.7
20260510080013 53 221 7.0 17.0 0.00 0.02 0.00 39 1017.9
20260510073013 52 219 6.0 14.0 0.00 0.02 0.00 1 1017.6
20260510071513 51 221 3.0 10.0 0.00 0.02 0.00 1 1017.6
20260510070012 49 209 5.0 9.0 0.00 0.02 0.00 1 1017.4
20260510064512 49 198 3.0 11.0 0.00 0.02 0.00 1 1017.5
20260510063013 48 213 3.0 7.0 0.00 0.04 0.00 1 1017.4
20260510061513 48 207 2.0 7.0 0.00 0.12 0.00 1 1017.3
20260510060012 47 196 2.0 7.0 0.00 0.13 0.00 1 1017.1
20260510054512 47 190 2.0 7.0 0.00 0.17 0.00 1 1017.1
20260510053013 47 194 2.0 8.0 0.00 0.17 0.00 1 1017.1
20260510051512 48 202 3.0 8.0 0.00 0.17 0.00 1 1017.2
20260510050012 48 198 2.0 6.0 0.00 0.17 0.00 1 1017.2
20260510044512 47 201 2.0 6.0 0.00 0.17 0.00 1 1017.1
20260510043012 47 208 2.0 7.0 0.00 0.17 0.00 1 1017.1
20260510040012 47 210 3.0 5.0 0.00 0.17 0.00 1 1017.1
20260510033012 47 224 2.0 6.0 0.00 0.17 0.00 1 1017.2
20260510031512 47 221 2.0 6.0 0.00 0.17 0.00 1 1017.1
20260510030012 47 215 1.0 5.0 0.00 0.17 0.00 1 1017.3
20260510024512 47 230 2.0 4.0 0.00 0.17 0.00 1 1017.2
20260510023012 47 231 3.0 7.0 0.00 0.17 0.00 1 1017.3
20260510021512 48 235 6.0 12.0 0.00 0.17 0.00 1 1017.4
20260510020012 48 236 8.0 13.0 0.00 0.17 0.00 1 1017.5
20260510014512 48 246 8.0 17.0 0.00 0.17 0.00 1 1017.5
20260510013012 49 245 6.0 16.0 0.00 0.17 0.00 1 1017.6
20260510011512 49 235 4.0 9.0 0.00 0.17 0.00 1 1017.8
20260510010012 49 238 6.0 12.0 0.00 0.17 0.00 1 1017.9
20260510003012 49 230 4.0 11.0 0.00 0.17 0.00 1 1017.8
20260510001512 50 229 5.0 10.0 0.00 0.17 0.00 1 1018.0
20260510000012 50 235 5.0 12.0 0.00 0.17 0.00 1 1018.2
20260509234512 50 228 3.0 9.0 0.00 0.17 0.00 1 1018.3
20260509233012 50 232 2.0 7.0 0.00 0.17 0.00 1 1018.4
20260509231512 50 229 4.0 10.0 0.00 0.17 0.00 1 1018.3
20260509230012 49 213 3.0 8.0 0.00 0.17 0.00 1 1018.3
20260509224511 49 231 4.0 13.0 0.00 0.17 0.00 1 1018.3
20260509223011 49 213 2.0 8.0 0.00 0.17 0.00 1 1018.0
20260509221512 48 221 2.0 5.0 0.00 0.17 0.00 1 1017.9
20260509220013 49 218 2.0 6.0 0.00 0.17 0.00 1 1017.9
20260509214511 49 211 1.0 7.0 0.00 0.17 0.17 1 1017.8
20260509213011 49 216 1.0 4.0 0.00 0.17 0.17 1 1017.7
20260509211511 49 213 2.0 5.0 0.00 0.17 0.17 1 1017.8
20260509210012 49 226 2.0 6.0 0.00 0.17 0.17 1 1017.8
20260509204511 49 225 3.0 7.0 0.00 0.17 0.17 1 1017.5
20260509203012 49 229 6.0 12.0 0.00 0.17 0.17 1 1017.3
20260509201511 50 235 8.0 14.0 0.00 0.17 0.17 1 1017.0
20260509200011 50 232 10.0 19.0 0.00 0.17 0.17 1 1017.0
20260509193011 51 230 9.0 15.0 0.00 0.17 0.17 1 1016.5
20260509190011 51 241 10.0 21.0 0.00 0.17 0.17 1 1016.0
20260509184511 52 238 10.0 18.0 0.02 0.17 0.17 1 1015.9
20260509183011 52 244 9.0 18.0 0.02 0.17 0.17 1 1015.9
20260509181511 52 249 10.0 17.0 0.02 0.17 0.17 1 1015.6
20260509180011 54 242 8.0 24.0 0.02 0.17 0.17 1 1015.3
20260509174511 57 222 8.0 15.0 0.00 0.15 0.15 52 1015.0